Find Badr B

NORAD ID: 27003 Int'l Des: 2001-056 Owner: SUPA Country: PK operational
LEOCIRCULARRETROGRADESSO

現在のビュー

3D地球を読み込み中...

About Badr B

Badr B (NORAD 27003) is a satellite launched Dec 10, 2001 by SUPA of PK. It operates in LEO, CIRCULAR, RETROGRADE, SSO orbit with a mass of 69.00 kg.

次回通過

Passes for default location (London). Set your location on the main map for personalized predictions.

高度履歴

Loading altitude history...

軌道要素

1 27003U 01056C 26195.06713390 -.00000030 00000-0 18238-4 0 9996
2 27003 99.8054 11.2141 0021013 68.8904 291.4485 13.70409809229626
Epoch: Jul 14, 2026 • Age: 8 hours

現在のステータス

高度 1037.2 km
遠地点 / 近地点 N/A
速度 7.33 km/s
衛星直下点 -72.50°S, 37.75°W
打ち上げ日 Dec 10, 2001
運用期間 24.5 years
タイプ other

技術仕様

分類 Payload
質量 69.00 kg
乾燥質量 69.00 kg
総質量 69.00 kg
長さ 0.50 m
直径 0.50 m
スパン 6.50 m
形状 Box + Ant
製造者 SIL
バスタイプ microSIL
フェーズステータス In Orbit
所有者/国 SUPA/PK

Most Searched